Retour au catalogue

COSMOS 372

ActifMilitaireLEO
NORAD 4588·PAYLOAD·🇷🇺 Russia

Lancé Oct 16, 1970 depuis Plesetsk Cosmodrome

Loading…

Prochains Passages (prochaines 24 heures)

TLE

FraisSource: Space-Track

Époque: Sep 14, 2026, 14:18 UTC

1 04588U 70086A   26257.59645449  .00000069  00000-0  32156-4 0  9990
2 04588  74.0550  50.2519 0012808 157.5075 249.0215 14.36966862925762

Suivez COSMOS 372 en temps réel avec AllMySat

Download on the App Store